Wetbulb
63.44 62.44 62.32 63.20 62.91 62.30 61.31 60.69 60.00 58.58 57.47 55.92 55.88 56.59 57.03 57.86 60.81 62.49 62.99 62.71 62.58 61.29
62.27 63.86 63.15 63.70 63.78 64.04 62.41 61.49 61.57 60.69 58.67 57.46 55.86 55.50 56.72 58.01 59.21 60.26 62.48 62.77 63.25 61.73
62.72 63.84 63.88 63.22 63.76 63.77 62.32 62.15 61.11 60.09 59.73 58.66 58.06 56.63 56.47 57.12 58.26 59.21 59.65 62.02 62.03 62.02
61.82 62.49 63.18 60.95 61.23 61.77 61.15 60.69 60.35 60.63 59.93 59.27 58.59 58.62 57.43 56.43 57.27 58.67 59.36 60.74 60.82 60.01
61.90 62.14 62.25 61.19 61.54 61.60 60.59 62.57 62.28 60.93 60.45 59.79 57.83 57.98 57.62 56.58 57.99 59.67 59.00 58.74 58.17 57.79
61.09 60.80 60.56 60.46 61.13 60.24 59.80 60.11 60.02 60.30 59.91 59.70 59.51 58.28 57.93 57.40 56.34 56.47 56.48 56.74 56.61 56.96
59.86 59.75 59.98 61.22 59.92 59.51 59.34 59.42 58.76 59.30 59.26 58.92 58.58 59.05 58.31 57.71 56.51 55.77 55.40 55.20 54.93 54.91
59.19 60.47 60.75 60.96 59.16 59.33 59.43 58.63 58.40 58.72 58.33 56.82 57.28 57.34 57.62 56.96 55.94 54.36 48.53 43.85 42.19 41.17
59.07 59.31 59.93 60.13 58.80 58.38 57.81 57.48 57.11 57.13 54.04 50.87 46.53 40.85 42.66 45.80 43.84 40.66 38.14 35.55 34.78 34.66
58.87 58.71 59.54 58.96 58.25 56.91 55.06 52.33 47.90 46.38 45.16 42.22 40.89 38.89 39.22 38.73 38.62 36.78 35.67 34.18 32.81 31.55
57.89 57.66 58.81 57.77 56.21 51.18 48.90 46.17 42.53 39.89 39.82 38.33 37.37 36.56 35.93 35.23 34.35 33.29 32.89 32.25 31.48 29.88
56.99 56.55 56.96 52.75 49.28 45.38 41.90 40.18 38.79 37.86 37.07 36.10 35.60 35.28 34.71 33.99 32.34 31.10 30.22 30.21 30.06 29.40
55.78 55.44 51.13 46.22 42.46 40.98 38.34 35.95 35.85 34.66 35.12 34.84 34.61 34.79 34.49 33.69 31.82 29.70 28.20 27.86 28.09 28.57
54.14 50.17 45.46 41.55 39.11 37.20 34.90 33.82 33.02 32.65 33.49 33.83 33.80 33.82 33.73 32.79 30.48 28.86 27.42 26.51 26.27 26.84
MSLP
1003.02 1003.45 1003.98 1004.13 1004.68 1005.27 1005.82 1006.49 1007.47 1008.17 1008.77 1009.37 1009.80 1010.16 1010.80 1011.22 1011.64 1012.18 1012.61 1013.09 1013.47 1014.00
1003.09 1002.92 1003.09 1003.48 1004.33 1004.80 1005.51 1006.17 1006.93 1007.65 1008.27 1009.01 1009.71 1010.03 1010.45 1011.01 1011.47 1011.95 1012.40 1012.78 1013.31 1013.74
1002.48 1002.34 1002.89 1003.27 1003.87 1004.58 1005.23 1005.94 1006.59 1007.02 1007.60 1008.36 1009.10 1009.86 1010.14 1010.65 1011.26 1011.66 1012.07 1012.50 1013.14 1013.64
1002.06 1002.36 1002.90 1003.41 1003.86 1004.47 1005.01 1005.70 1006.16 1006.54 1007.16 1007.52 1008.23 1008.98 1009.75 1010.37 1010.68 1011.21 1011.66 1012.16 1012.72 1013.37
1001.93 1002.03 1002.58 1002.95 1003.32 1004.07 1004.39 1004.83 1005.49 1006.15 1006.67 1006.91 1007.64 1008.13 1008.68 1009.58 1009.96 1010.24 1010.96 1011.57 1012.45 1013.18
1001.68 1001.90 1002.40 1002.68 1003.15 1004.00 1004.46 1004.98 1005.44 1005.79 1006.13 1006.58 1007.14 1007.66 1007.62 1008.40 1009.17 1009.73 1010.31 1011.15 1011.89 1012.76
1001.33 1001.56 1002.00 1002.39 1003.12 1003.76 1004.30 1004.89 1005.35 1005.56 1005.91 1006.26 1006.48 1006.56 1006.86 1007.22 1008.35 1009.27 1009.84 1010.77 1011.66 1012.65
1001.00 1001.37 1001.79 1002.33 1002.92 1003.51 1004.12 1004.83 1005.20 1005.43 1005.71 1006.02 1006.11 1006.05 1006.06 1006.81 1007.63 1008.92 1010.34 1011.33 1012.16 1012.98
1000.74 1001.17 1001.61 1002.21 1002.92 1003.65 1004.23 1004.81 1005.26 1005.59 1006.10 1006.37 1006.77 1006.59 1006.77 1007.69 1008.79 1010.13 1011.54 1012.49 1013.66 1014.64
1000.43 1000.75 1001.47 1002.11 1002.98 1003.81 1004.54 1005.21 1005.92 1006.47 1007.01 1007.56 1008.14 1007.88 1008.23 1009.01 1010.29 1011.38 1012.44 1013.49 1014.35 1015.62
1000.14 1000.69 1001.39 1002.13 1003.14 1004.17 1005.03 1005.93 1006.76 1007.51 1008.11 1008.59 1009.49 1008.92 1009.57 1010.34 1011.47 1012.69 1014.07 1015.11 1015.70 1015.86
999.95 1000.71 1001.59 1002.51 1003.62 1004.72 1005.59 1006.83 1007.69 1008.57 1008.89 1009.33 1010.39 1010.52 1010.03 1011.01 1012.65 1014.28 1015.72 1016.75 1016.97 1017.26
999.96 1000.88 1002.15 1003.15 1004.23 1005.31 1006.19 1007.45 1008.46 1009.39 1010.02 1010.42 1010.94 1011.76 1011.56 1011.74 1013.26 1015.00 1016.48 1017.73 1018.33 1019.08
1000.04 1001.15 1002.53 1003.71 1004.73 1005.68 1006.86 1008.10 1009.31 1010.07 1011.17 1011.52 1012.01 1012.61 1012.76 1013.09 1013.79 1015.07 1016.85 1018.31 1019.54 1020.58
Wind_Speed
13 9 9 10 9 8 7 9 14 11 12 10 10 12 12 12 13 15 14 18 14 11
13 14 12 11 11 10 10 6 13 13 12 14 13 12 13 11 13 13 14 14 14 12
14 14 11 9 11 10 8 9 9 12 13 14 15 14 13 10 13 14 12 11 16 14
13 14 13 11 10 10 9 7 6 10 11 13 14 16 15 14 15 17 16 16 17 16
11 14 13 12 12 9 8 9 11 11 10 10 16 16 17 17 16 20 19 18 17 16
11 13 13 12 11 8 7 6 6 7 7 8 10 12 17 19 18 17 17 17 18 17
11 12 12 12 11 9 8 7 7 6 7 6 8 10 17 19 18 17 16 16 16 13
10 11 12 12 10 8 7 6 6 6 5 3 2 3 13 13 14 11 8 10 11 10
12 12 14 13 11 10 8 7 6 6 6 7 5 11 16 14 13 15 14 15 16 15
14 13 14 13 12 10 9 8 7 8 8 10 10 21 22 21 13 13 14 14 15 15
14 12 14 13 12 9 9 9 8 8 9 12 9 25 27 26 18 16 16 13 12 18
13 12 11 11 12 11 12 9 9 8 11 14 12 17 29 24 17 17 17 13 14 17
12 11 11 12 12 9 11 12 10 12 11 15 15 15 21 22 14 18 14 15 17 26
12 13 13 11 11 12 13 13 13 14 11 13 12 13 20 22 15 15 14 13 12 12
Wind_Direction
192 190 200 192 198 197 171 173 168 172 164 164 168 164 179 176 188 189 193 189 185 194
198 201 199 183 206 180 185 189 176 177 173 169 172 167 176 179 186 191 192 192 192 196
202 201 195 187 192 186 175 172 188 181 179 175 171 178 177 182 192 191 194 192 194 193
202 201 193 182 182 185 173 177 185 185 191 186 182 181 180 187 189 198 194 195 195 187
201 202 194 188 176 178 202 203 203 198 200 192 184 184 187 191 195 196 197 191 189 182
195 198 194 185 173 164 169 201 215 219 224 211 199 196 194 194 192 191 189 190 192 177
202 201 194 181 160 158 165 183 191 203 210 213 217 217 206 194 190 189 184 182 178 173
197 195 187 174 154 154 160 164 170 170 165 149 177 215 189 185 177 171 130 97 89 84
190 193 186 168 154 156 151 145 141 120 98 75 55 88 100 113 109 104 105 105 91 88
189 186 185 168 158 148 128 112 83 76 81 77 81 89 90 96 94 101 99 101 106 96
186 185 186 170 146 118 110 108 98 86 88 91 86 103 97 93 92 84 81 85 96 101
177 173 174 138 131 123 112 100 96 94 100 102 94 103 108 103 95 91 88 86 88 94
175 154 141 129 124 109 106 106 102 91 88 101 104 103 110 111 111 105 101 92 88 93
149 133 129 120 122 118 111 105 99 96 87 89 94 101 108 114 114 115 109 100 99 99